CAPE
1754 1762 317 49 49 107 242 414 597 757 963 1028 1052 1057 1171 1258 1646 1882 1860 2107 2196 2400 2267 2390 2447 2406 2441 2472 2565 2668 2652 2755 2621 2596 2586 2601 2561 2977 3110 2899 2896 3070 2858 2837 2865 3051 3181 3316 3402 3534 3660 3618 3583 3832 3857 3904 3842 3616 3604 3894 3966 4028 3808
1540 1618 971 42 39 125 262 452 686 721 864 945 993 1133 1118 1231 1662 1649 1881 2084 2142 2276 2161 2174 2398 2383 2416 2521 2493 2731 2740 2678 2659 2719 2547 2815 2898 3022 2990 3148 3093 3326 3395 3069 3259 3358 3402 3445 3373 3742 3834 3802 3654 3812 3658 3803 3846 3762 3373 3786 3775 4122 4127
1715 1729 1408 343 41 120 271 381 530 641 832 879 879 961 1041 1330 1526 1646 1908 1950 2079 2083 1996 2006 2268 2292 2301 2444 2402 2513 2551 2538 2647 2612 2514 2377 2453 2123 2472 2943 3038 2984 2988 3268 3584 3481 3417 3346 3675 3754 3710 3697 3539 3783 3797 3795 3896 3757 3769 4139 3899 3710 4199
1943 1888 1703 1285 218 122 207 276 432 510 615 733 826 836 987 1408 1341 1702 1789 1776 1995 1982 1939 1836 1971 1992 2145 2338 2249 2416 2515 2739 2468 2270 2192 2238 2480 2393 2523 2750 2913 2778 3161 3091 2852 3074 2932 3296 3511 3839 3919 3804 3609 3600 3641 3647 3430 3634 3742 4097 3921 3815 4199
1764 1864 1746 1431 886 203 134 216 344 535 554 617 746 857 990 1236 1167 1417 1506 1579 1697 1732 1704 1679 1611 1774 1967 2090 1961 2049 2152 2381 2493 2361 2302 2371 2606 2821 2548 2349 2603 2678 2814 2814 3192 3468 3678 3601 3248 3541 3674 3914 3633 3661 3671 3718 3544 3722 3768 3985 3817 3705 3592
1503 1597 1690 1728 1506 851 214 163 246 518 624 557 646 782 880 1042 977 1059 1244 1451 1484 1522 1605 1643 1606 1860 1956 1857 1812 1821 2171 2614 2742 2778 2590 2778 2846 2623 2678 2826 2771 2804 2832 3006 2912 3046 3420 3366 3197 3266 3068 3122 3072 2965 3055 3250 3256 3250 3570 3991 3861 3538 3210
1424 1407 1517 1910 1882 1652 1160 718 346 431 526 562 646 791 830 986 1048 1128 1135 1355 1416 1502 1483 1511 1502 1668 1887 1746 1832 2052 2211 2189 2563 2446 2472 2515 2690 2696 2864 2879 2921 2730 2684 3105 3071 3087 3123 3328 3370 3459 3318 2973 3084 2879 3108 3503 3342 3430 3786 4026 4117 4179 4058
1646 1507 1265 1749 2022 1724 1547 1633 1383 694 448 581 796 903 766 810 945 1300 1133 1332 1442 1647 1624 1648 1576 1679 1835 1833 1732 1737 1880 1840 2099 2302 2455 2226 2537 2353 2662 2742 2920 3042 3175 2919 3087 3203 2964 3217 3173 3372 3404 3169 3297 3457 3296 3735 4039 3360 3362 3662 3826 3881 3559
1448 1634 1512 1570 1629 1803 1870 1900 1736 1554 946 566 636 769 776 1020 972 1016 1088 1381 1630 1816 1820 1732 1806 1790 2148 1992 1833 1866 1732 1798 1931 2065 2105 1782 1928 1686 1720 2220 2495 3006 3012 2676 2728 3157 3106 3247 3081 3622 3692 3427 3525 3825 3712 4017 3819 3730 3796 3768 3953 3924 3512
1273 1302 1419 1379 1507 1450 1549 2056 1944 1743 1311 1102 953 1013 1002 1228 1066 944 1110 1425 1762 1710 1910 1724 2051 2096 2256 2257 2099 1740 1770 1862 1758 1499 1544 1486 1635 1565 1528 1515 2026 2606 2630 2581 2584 2863 3325 3297 3250 3756 4078 3798 3890 4047 3923 4000 3936 3826 3846 4028 3959 3945 4091
818 1290 1356 1272 1383 1390 1317 1408 1590 1848 1964 1813 1443 1248 1342 1434 1491 1502 1591 1952 1878 1847 1989 1977 2381 2176 2170 2224 2324 2058 1939 1749 1697 1704 1680 1523 1537 1606 1537 1565 1547 2003 2087 2123 2216 2454 2754 3447 3539 3757 3987 3495 3693 3938 4092 3959 3999 4132 3864 3820 3850 3961 3782
842 886 802 1055 1015 1332 1268 1256 1369 1355 1377 1741 1906 1820 1762 1856 1867 1940 2055 1951 1994 2199 2174 2549 2480 2388 2394 2319 2432 2506 2267 2024 1915 1874 1914 1896 1834 1807 1766 1762 1694 1780 1962 1896 2054 2404 2282 2528 2834 2984 3488 3462 3412 3548 3908 4044 4069 4198 4113 3757 3798 3918 3864
488 749 870 882 935 1025 1339 1048 1196 1146 1359 1539 1567 1797 1918 1963 2113 2055 2242 2454 2544 2590 2584 2922 2820 2779 2634 2626 2551 2709 2590 2480 2249 2217 2119 2296 2153 2145 2129 2011 1862 1707 1651 1906 1941 2037 1976 1998 2303 2672 2708 3008 3068 3031 3481 4012 3847 4215 4251 4088 4025 3990 4160
261 303 523 669 784 837 719 860 1030 1064 1100 1398 1425 1496 1482 1516 1642 1840 2011 2105 2162 2323 2313 2253 2648 2704 2615 2553 2543 2573 2633 2547 2497 2639 2574 2388 2384 2267 2200 2183 2139 2201 2096 2084 2061 1881 1839 1782 1787 2082 2255 2435 2562 2916 3136 3613 3713 4050 4161 4085 3838 3845 3935
299 324 333 333 484 682 690 808 872 872 806 903 933 984 1073 1228 1364 1509 1558 1722 1905 1743 1940 1959 2013 2108 2147 2248 2286 2261 2326 2249 2061 1996 1864 2332 2346 2088 2082 2062 2141 2228 2303 2294 2174 1853 1816 1848 1682 1811 2029 2135 2451 2622 2701 2676 3002 3252 3536 3829 3952 3654 3412
329 424 287 249 404 482 506 633 818 819 846 826 787 923 980 985 963 997 1021 1040 1110 1282 1466 1635 1765 1914 2013 2011 1980 1868 1684 1620 1513 1552 1687 1912 2021 2150 2082 1836 1980 1881 1857 1861 1922 1965 2070 2127 2119 2006 1949 2038 2246 2452 2388 2534 2646 2898 2529 2608 3013 3367 3064
278 281 215 241 409 501 656 541 575 611 708 747 822 793 868 1124 1103 1179 1138 1075 1086 1098 1092 1180 1171 1202 1193 1288 1638 1765 1514 1453 1514 1566 1590 1887 1878 1975 2012 1979 1791 1839 2013 1885 1776 1807 2125 1638 1630 1551 1599 1605 1626 1739 1784 1903 1978 2056 1812 1665 1604 2171 2741
237 235 295 330 287 294 674 680 671 688 678 590 646 761 796 761 828 942 991 886 1176 1171 1187 1177 1089 1139 1194 1167 1165 1254 1418 1427 1466 1483 1499 1478 1482 1684 1804 1747 1864 1973 1978 1798 1826 1993 1750 1720 1669 1951 1520 1300 1187 1165 1295 1446 1444 1202 1151 1156 1241 1293 2018
146 206 225 223 180 178 574 641 675 702 730 626 491 527 571 665 745 842 864 857 829 1078 1476 1431 1425 1226 1123 1471 1304 1046 1124 1146 1246 1505 1314 1380 1411 1446 1386 1475 1607 1701 1813 1916 1934 1676 1731 2222 1871 2042 1860 1730 1830 1452 1286 1323 785 766 742 746 708 762 987
186 161 118 48 147 142 187 149 623 723 695 643 608 480 520 498 515 644 750 736 779 799 950 1029 1005 931 881 888 878 857 867 908 885 861 867 978 1064 1280 1568 1494 1326 1619 1610 1754 1579 1601 1977 1962 2300 2340 2482 2329 2373 2248 1884 2004 1130 878 755 751 760 764 742
254 192 112 94 105 154 139 208 121 145 356 415 284 210 156 292 355 476 532 594 685 688 658 788 800 752 735 734 726 744 750 702 721 737 731 734 758 824 881 945 1054 1169 1255 1317 1337 1269 1508 1385 1662 1669 1781 1901 1938 2221 1886 1539 1136 1131 1064 939 884 782 685
249 130 108 136 125 153 156 156 179 191 212 215 167 164 118 27 90 232 268 383 403 404 449 536 636 652 577 672 751 773 695 793 802 770 750 753 816 868 891 876 860 857 905 976 994 1053 1082 1156 1362 1371 1247 1384 1358 1505 1800 1459 1124 1137 1184 1136 1108 983 859
200 145 124 121 102 114 169 162 126 125 143 107 0 126 157 145 82 154 186 200 387 396 400 441 480 378 272 350 342 409 524 612 554 749 605 724 801 808 816 842 833 810 814 835 921 961 1047 1057 1262 1252 1190 1245 1179 1216 1246 1184 1102 1092 1123 1164 1202 1166 1553
171 177 122 80 24 9 79 128 121 119 107 0 0 48 128 132 64 121 59 93 113 192 288 347 376 164 10 70 293 369 410 525 583 513 566 626 629 640 696 740 702 770 728 744 812 852 876 886 894 919 939 972 979 963 984 967 1000 992 964 1003 1134 1236 1319
52 38 0 0 0 8 0 0 7 9 10 0 0 29 0 6 97 66 46 32 68 59 84 120 139 144 122 31 148 92 134 277 284 280 283 247 230 228 267 370 485 589 626 555 484 534 676 773 830 803 814 826 843 812 808 826 872 941 971 999 1057 1127 1173
0 0 0 0 0 0 0 0 0 0 0 0 0 0 0 0 48 105 108 80 0 0 80 58 72 2 0 86 0 2 96 167 205 89 136 186 198 204 300 328 267 239 242 236 217 128 198 394 437 482 560 639 692 722 699 634 683 704 764 824 881 963 1032
0 0 0 0 0 0 0 0 0 0 0 0 0 0 0 0 0 0 0 114 134 50 0 48 68 16 105 33 114 97 54 46 100 148 124 109 127 137 158 167 185 191 182 173 178 225 229 300 308 309 329 331 347 357 381 389 370 393 432 491 595 685 714
0 0 0 0 0 0 0 0 0 0 0 0 0 0 0 0 0 0 0 0 0 0 0 0 0 0 0 0 0 0 33 117 127 29 85 74 80 91 90 93 64 23 99 105 70 143 160 182 197 202 202 183 158 130 94 84 110 169 233 270 329 405 460
7 0 0 0 0 0 0 0 0 0 0 0 0 0 0 0 0 0 0 0 0 0 0 0 0 0 0 0 0 0 0 0 0 0 0 0 0 0 0 0 0 1 19 34 84 106 109 102 91 97 112 118 51 49 45 1 7 1 1 122 205 246 309
0 0 0 0 0 0 0 0 0 0 0 0 0 0 0 0 0 0 0 0 0 0 0 0 0 0 0 0 0 0 0 0 0 0 0 0 0 0 0 0 0 0 0 4 0 0 0 0 0 0 0 0 0 0 0 0 1 0 0 56 79 96 139
0 0 0 0 0 0 0 0 0 0 0 0 0 0 0 0 0 0 0 0 0 0 0 0 0 0 0 0 0 0 0 0 0 0 0 0 0 0 0 0 0 0 0 0 0 0 0 0 0 0 0 0 0 0 0 0 0 0 0 0 0 0 0
21 0 0 0 0 0 0 0 0 0 0 0 0 0 0 0 0 0 0 0 0 0 0 0 0 0 0 0 0 0 0 0 0 0 0 0 0 0 0 0 0 0 0 0 0 0 0 0 0 0 0 0 0 0 0 0 0 0 0 0 0 0 0
0 0 0 0 0 0 0 0 0 0 0 0 0 0 0 0 0 0 0 0 0 0 0 0 0 0 0 0 0 0 0 0 0 0 0 0 0 0 0 0 0 0 0 0 0 0 0 0 0 0 0 0 0 0 0 0 0 0 0 0 0 0 0
0 0 0 0 0 0 0 0 0 0 0 0 0 0 0 0 0 0 0 0 0 0 0 0 0 0 0 0 0 0 0 0 0 0 0 0 0 0 0 0 0 0 0 1 6 2 0 0 0 0 0 0 0 0 0 0 0 0 0 0 0 0 0
0 0 0 0 0 0 0 0 0 0 0 0 0 0 0 0 0 0 0 0 0 1 0 0 0 0 2 1 1 1 0 0 0 0 0 0 0 0 0 0 2 6 8 6 8 7 0 0 0 0 0 0 0 0 0 0 0 0 0 0 0 0 0
0 0 0 0 0 0 0 0 0 0 0 0 0 0 0 0 0 0 0 0 0 0 0 0 0 1 0 1 0 0 1 1 0 0 0 0 0 2 1 0 0 1 1 0 0 0 0 0 0 0 0 2 2 0 3 4 0 0 0 0 0 0 0
0 0 0 0 0 0 0 0 0 0 0 0 0 0 0 0 0 0 0 0 0 0 0 1 0 0 0 2 2 2 4 1 2 4 5 1 1 4 7 2 4 0 0 0 0 0 0 0 0 0 0 0 21 2 0 0 0 0 0 0 0 0 0
0 0 0 0 0 0 0 0 0 0 0 0 0 0 0 0 0 0 0 0 0 0 0 0 0 0 1 2 1 2 4 3 4 4 7 8 6 4 3 3 11 32 2 0 0 0 0 0 0 0 0 0 0 6 6 0 0 0 0 0 0 0 0
Wind_Speed
26 25 21 nan nan 12 10 10 9 10 10 11 10 10 11 13 13 12 10 10 8 9 8 8 7 8 5 5 3 4 4 4 5 5 6 7 7 7 7 8 8 9 11 12 12 12 12 11 10 8 8 7 6 6 5 5 4 5 5 4 4 4 4
27 25 24 nan nan 12 11 11 11 12 12 12 12 11 12 13 14 12 10 10 9 9 8 8 8 9 8 7 7 5 5 5 5 6 7 8 8 8 8 7 8 8 9 11 11 11 10 9 9 8 8 7 6 6 5 4 4 4 4 4 3 3 3
32 29 27 22 nan 14 12 13 13 13 13 13 13 13 12 14 14 12 12 11 10 11 10 8 7 8 9 10 9 7 6 7 7 6 6 6 5 5 7 7 8 8 8 9 10 9 9 8 7 7 7 7 6 5 5 4 3 3 3 3 2 2 2
36 31 31 27 21 19 15 13 12 13 14 13 12 11 13 15 16 15 14 11 11 12 11 9 7 7 9 10 10 9 8 9 8 8 7 7 7 7 8 7 8 9 9 8 8 9 9 8 6 6 6 6 5 5 4 3 3 2 2 2 2 1 2
34 32 31 29 24 21 19 17 15 15 14 13 14 15 16 17 17 16 15 13 12 11 10 9 8 8 9 9 11 11 9 8 9 9 9 10 9 9 9 8 8 7 8 9 9 9 9 8 7 7 6 6 5 4 4 3 3 3 2 2 2 2 2
30 29 28 29 27 23 20 19 18 17 16 15 15 17 19 18 17 15 15 15 13 14 13 12 10 11 10 9 10 11 11 11 12 11 10 11 11 10 10 10 10 9 9 9 10 8 8 7 7 7 6 6 5 5 5 4 4 3 3 4 4 4 3
27 30 30 30 29 27 24 22 21 20 20 19 20 21 21 19 17 17 16 15 15 14 14 13 12 12 12 12 11 11 11 11 12 11 11 11 12 11 12 12 12 12 12 12 10 10 9 8 8 8 7 7 7 6 7 6 6 6 6 5 4 4 4
20 24 27 30 30 29 28 27 26 24 23 23 23 22 20 20 19 19 17 16 17 17 16 15 14 14 14 13 13 11 11 11 12 12 12 11 13 12 13 14 13 13 13 12 11 10 9 9 9 9 9 9 9 9 8 9 8 6 7 6 6 5 6
12 16 20 23 27 29 29 30 30 29 26 23 21 21 20 22 20 18 17 18 18 18 16 15 16 17 17 16 14 12 12 12 12 13 12 11 12 11 12 13 13 15 14 13 12 12 11 10 10 11 11 11 11 12 11 11 10 9 9 8 8 7 6
11 13 14 17 24 28 30 30 32 32 30 28 26 24 22 23 22 21 20 20 20 18 17 17 19 19 19 19 17 14 15 14 14 13 13 13 14 13 13 14 15 16 15 14 14 13 12 11 11 12 12 12 12 12 12 11 11 10 9 8 8 8 7
18 14 14 14 18 23 29 31 32 34 33 30 28 26 26 26 25 24 23 23 22 21 20 20 22 21 21 20 19 17 17 16 16 16 16 16 18 16 15 15 15 17 16 16 16 15 14 13 12 12 12 11 11 11 11 10 9 9 8 8 9 8 8
20 21 20 14 15 21 27 31 36 37 35 34 33 31 31 30 29 26 25 24 25 25 25 24 24 23 23 23 22 21 19 19 19 19 19 19 20 19 18 18 17 17 18 17 17 17 15 14 13 12 11 10 10 10 10 9 9 8 7 7 8 9 9
22 21 21 23 16 20 25 29 37 42 40 36 36 36 35 34 33 30 28 28 29 30 29 29 27 26 25 25 24 24 23 22 22 23 23 23 22 22 21 20 19 18 18 18 18 17 16 15 14 14 12 10 10 10 10 9 9 10 9 8 8 9 9
23 21 21 20 17 20 25 28 36 43 46 44 43 41 40 38 35 33 31 31 32 33 33 31 29 28 26 26 25 25 25 24 24 25 25 24 24 23 22 22 21 21 20 19 18 17 16 16 15 15 13 12 12 12 11 11 11 11 11 11 10 9 9
23 24 24 24 21 19 25 25 31 39 46 51 51 47 43 39 37 36 35 35 34 33 33 33 31 30 29 28 28 28 28 28 26 24 23 24 24 23 24 23 23 22 21 20 19 18 18 17 16 16 15 15 14 13 13 12 12 14 14 13 11 10 8
24 25 27 28 27 23 24 29 31 34 44 54 52 48 45 43 41 38 37 37 37 35 34 33 33 32 30 29 30 30 31 30 28 25 23 23 24 25 25 25 24 24 23 22 21 21 21 20 19 18 18 17 17 16 15 15 15 16 14 14 14 12 11
28 29 30 30 29 28 28 30 31 28 36 48 53 49 46 42 42 43 41 39 39 38 37 38 37 36 33 32 32 31 31 30 28 26 25 26 26 25 25 25 25 25 25 24 23 23 24 22 21 20 20 20 20 19 18 18 18 19 17 16 14 13 12
33 34 34 33 30 28 30 31 32 32 33 39 46 49 48 45 44 45 44 44 45 43 42 41 40 38 36 36 35 34 32 31 30 29 29 28 27 26 25 24 24 24 24 24 24 25 24 24 25 25 24 23 23 22 21 21 24 24 20 18 17 17 14
37 37 38 37 36 32 29 29 30 33 33 32 35 42 47 49 50 49 48 50 48 47 46 45 43 40 41 40 39 38 36 35 35 35 34 32 30 29 27 25 26 25 26 26 26 26 25 25 25 26 25 26 26 25 25 25 34 31 26 21 19 19 17
39 39 39 nan 37 35 33 29 27 29 32 28 27 30 35 41 45 47 50 51 50 49 48 49 47 47 46 44 44 41 38 38 39 39 38 38 38 37 34 32 32 33 32 31 29 28 27 26 26 28 27 27 27 28 30 30 38 33 32 28 24 22 21
39 38 38 nan 37 36 36 35 34 32 32 30 27 27 27 28 29 32 38 43 48 49 50 50 48 47 46 46 44 45 44 43 41 40 39 39 41 41 41 40 38 38 38 37 36 34 31 29 28 29 27 27 27 29 31 37 39 37 35 33 29 27 24
35 36 36 36 39 37 34 34 34 35 34 32 31 30 28 nan nan 24 23 27 33 36 42 46 47 45 46 47 47 46 44 43 42 42 41 41 43 44 44 42 41 41 41 40 39 36 33 34 33 33 32 31 30 30 32 41 41 39 38 35 35 30 27
32 33 34 34 36 37 36 35 35 35 35 36 nan 34 31 29 nan 24 21 22 21 23 27 31 33 32 33 37 38 40 43 45 45 45 43 43 45 45 45 43 43 43 43 42 38 36 37 39 39 38 36 36 35 35 34 41 41 42 41 39 35 30 31
33 33 33 nan nan nan nan 35 35 36 37 nan nan nan 34 33 nan 29 nan nan 21 21 23 25 24 23 nan nan 26 27 31 37 41 42 42 44 48 49 48 45 42 43 44 43 40 41 41 41 41 42 42 42 42 41 42 42 44 46 45 42 39 33 33
nan nan nan nan nan nan nan nan nan nan nan nan nan nan nan nan nan nan nan nan nan nan nan 24 23 22 21 nan 20 nan 23 25 29 31 32 34 35 38 42 42 42 41 39 35 32 33 38 41 42 42 42 43 44 46 44 44 45 47 46 45 44 39 36
nan nan nan nan nan nan nan nan nan nan nan nan nan nan nan nan nan 38 36 nan nan nan nan nan nan nan nan nan nan nan nan 23 23 nan 25 26 27 28 29 29 32 34 31 27 23 25 30 35 36 38 40 42 44 45 45 46 44 45 46 46 47 44 40
nan nan nan nan nan nan nan nan nan nan nan nan nan nan nan nan nan nan nan 31 31 nan nan nan nan nan 26 nan 28 nan nan nan nan 26 26 25 26 26 26 25 27 28 27 27 26 27 28 29 29 31 32 34 35 38 40 41 42 44 47 47 48 49 44
nan nan nan nan nan nan nan nan nan nan nan nan nan nan nan nan nan nan nan nan nan nan nan nan nan nan nan nan nan nan nan 35 33 nan nan nan nan nan nan nan nan nan nan 28 nan 31 32 32 32 32 32 31 30 30 nan nan 40 36 42 44 46 47 47
nan nan nan nan nan nan nan nan nan nan nan nan nan nan nan nan nan nan nan nan nan nan nan nan nan nan nan nan nan nan nan nan nan nan nan nan nan nan nan nan nan nan nan nan nan 32 33 34 nan nan 35 34 nan nan nan nan nan nan nan 40 41 42 41
nan nan nan nan nan nan nan nan nan nan nan nan nan nan nan nan nan nan nan nan nan nan nan nan nan nan nan nan nan nan nan nan nan nan nan nan nan nan nan nan nan nan nan nan nan nan nan nan nan nan nan nan nan nan nan nan nan nan nan nan nan nan 37
nan nan nan nan nan nan nan nan nan nan nan nan nan nan nan nan nan nan nan nan nan nan nan nan nan nan nan nan nan nan nan nan nan nan nan nan nan nan nan nan nan nan nan nan nan nan nan nan nan nan nan nan nan nan nan nan nan nan nan nan nan nan nan
nan nan nan nan nan nan nan nan nan nan nan nan nan nan nan nan nan nan nan nan nan nan nan nan nan nan nan nan nan nan nan nan nan nan nan nan nan nan nan nan nan nan nan nan nan nan nan nan nan nan nan nan nan nan nan nan nan nan nan nan nan nan nan
nan nan nan nan nan nan nan nan nan nan nan nan nan nan nan nan nan nan nan nan nan nan nan nan nan nan nan nan nan nan nan nan nan nan nan nan nan nan nan nan nan nan nan nan nan nan nan nan nan nan nan nan nan nan nan nan nan nan nan nan nan nan nan
nan nan nan nan nan nan nan nan nan nan nan nan nan nan nan nan nan nan nan nan nan nan nan nan nan nan nan nan nan nan nan nan nan nan nan nan nan nan nan nan nan nan nan nan nan nan nan nan nan nan nan nan nan nan nan nan nan nan nan nan nan nan nan
nan nan nan nan nan nan nan nan nan nan nan nan nan nan nan nan nan nan nan nan nan nan nan nan nan nan nan nan nan nan nan nan nan nan nan nan nan nan nan nan nan nan nan nan nan nan nan nan nan nan nan nan nan nan nan nan nan nan nan nan nan nan nan
nan nan nan nan nan nan nan nan nan nan nan nan nan nan nan nan nan nan nan nan nan nan nan nan nan nan nan nan nan nan nan nan nan nan nan nan nan nan nan nan nan nan nan nan nan nan nan nan nan nan nan nan nan nan nan nan nan nan nan nan nan nan nan
nan nan nan nan nan nan nan nan nan nan nan nan nan nan nan nan nan nan nan nan nan nan nan nan nan nan nan nan nan nan nan nan nan nan nan nan nan nan nan nan nan nan nan nan nan nan nan nan nan nan nan nan nan nan nan nan nan nan nan nan nan nan nan
nan nan nan nan nan nan nan nan nan nan nan nan nan nan nan nan nan nan nan nan nan nan nan nan nan nan nan nan nan nan nan nan nan nan nan nan nan nan nan nan nan nan nan nan nan nan nan nan nan nan nan nan nan nan nan nan nan nan nan nan nan nan nan
Wind_Direction
213 210 210 nan nan 201 205 214 215 209 213 215 217 228 235 236 235 228 220 219 218 222 214 207 203 200 200 192 186 191 171 180 194 182 174 173 176 183 184 187 192 198 205 210 215 216 219 219 218 215 215 214 212 216 216 224 226 229 238 237 231 223 200
213 210 212 nan nan 200 205 215 220 210 208 211 214 224 229 239 240 237 227 229 233 235 228 213 205 199 198 195 194 200 199 192 194 198 193 193 192 190 186 191 192 201 204 205 213 219 224 227 223 220 214 214 213 216 222 231 234 238 246 253 239 230 211
211 206 208 208 nan 200 207 214 218 215 214 212 212 218 227 236 242 246 238 235 240 240 233 225 210 203 198 197 195 196 202 204 201 201 200 197 199 192 196 194 195 200 203 208 209 217 224 229 231 221 215 211 212 222 221 226 228 229 238 245 240 229 204
212 205 202 202 199 198 205 212 220 217 214 215 214 217 226 234 235 236 238 240 243 245 248 241 230 216 206 203 196 197 201 210 206 198 191 195 209 215 215 212 206 205 213 211 214 215 222 227 232 228 227 218 214 213 215 206 209 217 219 241 222 208 179
215 211 206 203 203 201 200 205 212 215 215 216 214 214 218 229 234 233 234 236 237 243 251 262 252 242 222 214 203 199 202 215 213 203 199 198 204 213 216 219 221 216 216 219 224 226 227 229 230 230 231 230 223 225 208 204 194 193 189 202 195 206 172
217 210 210 210 208 204 201 203 206 211 214 214 218 223 223 231 231 237 235 238 236 233 233 238 245 248 242 231 215 210 211 215 218 215 209 210 209 208 212 216 219 219 226 227 231 231 237 234 236 239 236 236 234 228 224 222 221 218 220 215 202 200 201
216 211 211 212 211 208 206 209 212 212 213 211 214 220 225 228 232 235 235 237 239 243 241 240 238 240 238 234 225 224 222 220 221 223 220 219 220 212 212 213 213 217 217 229 229 235 240 241 244 249 249 242 243 241 241 239 235 240 242 243 240 239 234
221 217 217 217 216 212 209 212 216 219 219 218 220 221 225 226 229 232 234 235 238 238 237 238 236 237 241 239 234 232 229 227 227 227 227 230 230 221 219 216 215 216 223 226 231 235 238 240 241 248 254 255 255 253 252 252 252 249 253 257 258 256 261
241 230 230 229 227 219 214 213 215 217 224 225 226 224 225 227 229 229 231 233 235 239 239 240 240 238 240 240 240 241 237 236 234 230 230 230 230 227 226 227 221 222 221 221 229 237 234 238 238 244 249 250 253 256 256 260 258 257 257 256 259 257 255
257 255 249 249 235 225 221 221 222 221 221 220 222 226 227 226 224 224 227 230 231 235 237 237 237 238 240 239 236 237 237 235 232 232 229 227 226 225 225 227 230 230 224 221 223 232 237 237 238 242 245 244 248 251 252 258 259 261 264 267 265 261 261
237 239 244 253 247 235 228 228 231 229 224 221 220 221 224 225 224 223 225 229 231 230 233 233 235 239 240 242 240 235 232 233 233 231 227 223 222 222 223 225 227 232 230 224 222 223 230 239 242 244 244 238 240 242 246 248 253 259 260 265 268 270 265
235 232 223 233 255 245 237 232 234 235 230 224 222 223 223 224 222 221 222 227 228 230 229 229 232 236 238 240 241 237 232 227 227 229 228 226 223 224 224 224 226 230 234 230 227 225 223 227 235 241 241 235 231 234 237 240 246 253 255 258 265 269 268
238 233 231 223 228 253 242 239 237 239 237 232 229 225 221 222 222 222 224 227 228 230 230 229 230 234 236 238 239 238 236 231 228 228 230 230 227 225 226 227 228 230 232 235 233 231 225 225 228 235 232 227 223 222 229 238 244 251 253 250 254 260 266
247 246 240 242 245 262 252 246 243 241 236 232 230 227 222 220 222 223 225 228 230 231 231 229 230 232 234 236 237 238 238 235 233 232 233 233 236 235 233 230 229 231 233 236 239 237 235 229 230 234 236 232 226 224 225 230 236 247 250 248 244 247 254
249 249 248 246 247 258 266 256 248 244 237 230 228 226 225 224 225 226 227 228 229 233 234 233 232 232 232 233 234 236 238 238 237 236 236 236 237 239 240 238 237 236 234 236 237 239 241 240 237 236 237 240 241 235 233 232 238 246 252 254 254 249 243
250 249 248 244 237 233 248 250 254 248 233 227 226 228 224 220 219 223 228 230 231 234 236 237 234 233 233 234 234 235 237 239 238 238 238 238 238 238 240 242 242 241 241 239 238 240 242 242 242 241 242 245 249 250 247 247 248 258 269 266 259 258 251
255 255 255 251 242 239 247 249 251 247 234 227 227 226 223 217 217 220 225 230 231 231 231 234 233 231 228 230 231 232 234 236 238 238 239 239 239 240 240 242 242 245 245 243 241 240 243 244 246 245 245 247 249 253 254 253 254 263 273 280 280 267 261
259 259 258 255 248 244 246 249 251 252 246 236 232 229 226 223 221 221 218 223 227 227 230 231 230 228 228 233 235 234 234 234 236 238 238 238 240 241 243 243 245 247 249 248 248 245 242 244 246 246 247 249 250 252 253 252 253 258 264 273 280 282 274
261 262 262 262 258 249 244 247 250 251 251 246 237 233 229 227 228 225 221 220 220 224 226 227 227 227 227 229 232 234 234 234 235 236 236 238 242 244 245 245 246 247 248 249 248 248 248 247 247 249 249 250 252 252 252 251 254 251 253 259 269 278 279
260 260 260 nan 260 258 254 254 249 248 249 247 243 238 233 229 230 229 228 227 225 224 225 228 226 224 224 226 228 229 230 232 234 234 234 236 238 239 239 242 242 241 243 246 249 248 247 247 247 246 246 246 249 250 249 250 250 248 251 249 256 266 273
261 260 258 nan 260 261 259 255 255 251 248 246 245 241 235 231 231 228 229 231 231 228 229 229 230 229 227 228 227 229 230 231 231 231 230 233 236 236 237 239 240 242 243 243 244 245 244 243 245 244 243 244 246 249 251 249 241 245 249 250 248 254 267
266 261 257 258 263 264 264 263 258 255 251 248 246 244 239 nan nan 233 229 228 229 226 227 231 232 231 231 230 229 230 230 232 233 234 234 235 235 236 237 238 240 242 243 244 243 245 248 249 246 245 244 243 243 247 251 249 242 243 244 247 250 256 257
265 263 261 258 257 257 257 260 259 255 252 249 nan 249 246 240 nan 234 231 227 222 221 217 220 222 220 224 229 226 227 231 233 234 236 234 234 236 235 234 235 237 238 241 244 244 245 246 246 245 244 244 245 244 247 249 250 243 241 242 243 243 251 256
257 259 259 nan nan nan nan 260 258 255 253 nan nan nan 250 247 nan 240 nan nan 233 226 218 215 211 207 nan nan 214 217 224 228 231 233 233 233 235 235 236 238 240 242 242 240 240 240 242 245 246 243 244 246 247 247 252 252 247 244 243 241 240 246 251
nan nan nan nan nan nan nan nan nan nan nan nan nan nan nan nan nan nan nan nan nan nan nan 224 217 213 214 nan 211 nan 214 216 220 225 229 231 230 230 233 234 234 238 238 236 235 241 242 244 245 245 244 245 247 248 251 253 250 246 245 244 242 244 249
nan nan nan nan nan nan nan nan nan nan nan nan nan nan nan nan nan 251 251 nan nan nan nan nan nan nan nan nan nan nan nan 223 223 nan 226 230 231 230 230 228 230 234 238 238 238 241 240 240 241 243 243 243 245 247 248 251 250 244 242 241 241 241 249
nan nan nan nan nan nan nan nan nan nan nan nan nan nan nan nan nan nan nan 248 242 nan nan nan nan nan 235 nan 235 nan nan nan nan 238 240 241 244 246 247 244 244 248 253 254 251 249 245 243 243 243 242 241 241 243 244 247 250 246 245 245 245 242 244
nan nan nan nan nan nan nan nan nan nan nan nan nan nan nan nan nan nan nan nan nan nan nan nan nan nan nan nan nan nan nan 241 242 nan nan nan nan nan nan nan nan nan nan 256 nan 254 253 252 252 251 249 248 246 245 nan nan 248 249 249 246 245 245 243
nan nan nan nan nan nan nan nan nan nan nan nan nan nan nan nan nan nan nan nan nan nan nan nan nan nan nan nan nan nan nan nan nan nan nan nan nan nan nan nan nan nan nan nan nan 255 256 255 nan nan 254 253 nan nan nan nan nan nan nan 248 246 244 245
nan nan nan nan nan nan nan nan nan nan nan nan nan nan nan nan nan nan nan nan nan nan nan nan nan nan nan nan nan nan nan nan nan nan nan nan nan nan nan nan nan nan nan nan nan nan nan nan nan nan nan nan nan nan nan nan nan nan nan nan nan nan 247
nan nan nan nan nan nan nan nan nan nan nan nan nan nan nan nan nan nan nan nan nan nan nan nan nan nan nan nan nan nan nan nan nan nan nan nan nan nan nan nan nan nan nan nan nan nan nan nan nan nan nan nan nan nan nan nan nan nan nan nan nan nan nan
nan nan nan nan nan nan nan nan nan nan nan nan nan nan nan nan nan nan nan nan nan nan nan nan nan nan nan nan nan nan nan nan nan nan nan nan nan nan nan nan nan nan nan nan nan nan nan nan nan nan nan nan nan nan nan nan nan nan nan nan nan nan nan
nan nan nan nan nan nan nan nan nan nan nan nan nan nan nan nan nan nan nan nan nan nan nan nan nan nan nan nan nan nan nan nan nan nan nan nan nan nan nan nan nan nan nan nan nan nan nan nan nan nan nan nan nan nan nan nan nan nan nan nan nan nan nan
nan nan nan nan nan nan nan nan nan nan nan nan nan nan nan nan nan nan nan nan nan nan nan nan nan nan nan nan nan nan nan nan nan nan nan nan nan nan nan nan nan nan nan nan nan nan nan nan nan nan nan nan nan nan nan nan nan nan nan nan nan nan nan
nan nan nan nan nan nan nan nan nan nan nan nan nan nan nan nan nan nan nan nan nan nan nan nan nan nan nan nan nan nan nan nan nan nan nan nan nan nan nan nan nan nan nan nan nan nan nan nan nan nan nan nan nan nan nan nan nan nan nan nan nan nan nan
nan nan nan nan nan nan nan nan nan nan nan nan nan nan nan nan nan nan nan nan nan nan nan nan nan nan nan nan nan nan nan nan nan nan nan nan nan nan nan nan nan nan nan nan nan nan nan nan nan nan nan nan nan nan nan nan nan nan nan nan nan nan nan
nan nan nan nan nan nan nan nan nan nan nan nan nan nan nan nan nan nan nan nan nan nan nan nan nan nan nan nan nan nan nan nan nan nan nan nan nan nan nan nan nan nan nan nan nan nan nan nan nan nan nan nan nan nan nan nan nan nan nan nan nan nan nan
nan nan nan nan nan nan nan nan nan nan nan nan nan nan nan nan nan nan nan nan nan nan nan nan nan nan nan nan nan nan nan nan nan nan nan nan nan nan nan nan nan nan nan nan nan nan nan nan nan nan nan nan nan nan nan nan nan nan nan nan nan nan nan